Regional Weather Roundup
Issued by NWS Newport/Morehead, NC

Current Version | Previous Version | Text Only | Print | Product List | Glossary On
Versions: 1 2 3 4 5 6 7 8 9 10 11 12 13 14 15 16 17 18 19 20 21 22 23 24 25 26 27 28 29 30 31 32 33 34 35 36 37 38 39 40 41 42 43 44 45 46 47 48 49 50
000
ASUS42 KMHX 300013
RWRMHX
WEATHER ROUNDUP FOR EASTERN NORTH CAROLINA
NATIONAL WEATHER SERVICE NEWPORT/MOREHEAD CITY NC
800 PM EDT MON JUN 29 2015

NOTE: "FAIR" INDICATES FEW OR NO CLOUDS BELOW 12,000 FEET
WITH NO SIGNIFICANT WEATHER AND/OR OBSTRUCTIONS TO VISIBILITY

NCZ015>017-031-032-045>047-102-103-300100-
NORTH COAST

CITY           SKY/WX    TMP DP  RH WIND       PRES   REMARKS
EDENTON          N/A     81  66  60 SE7       29.95R
ELIZABETH CITY PTCLDY    78  69  73 SE9       29.95S
KITTY HAWK     MOCLDY    79  67  67 SE3       29.96R
MANTEO         MOCLDY    77  69  76 SE7       29.97R

$$

NCZ045>047-081-094-103-104-300100-
CENTRAL COAST

CITY           SKY/WX    TMP DP  RH WIND       PRES   REMARKS
FRISCO         MOCLDY    79  71  76 CALM      29.96S
SWANQUARTER      N/A     81 N/A N/A SE3       29.91S

$$

NCZ095-097-098-100-101-300100-
SOUTHERN COAST

CITY           SKY/WX    TMP DP  RH WIND       PRES   REMARKS
BEAUFORT       MOCLDY    80  75  84 SW12      29.96R
CEDAR ISLAND     N/A     82 N/A N/A S5        30.00R
JACKSONVILLE   PTCLDY    79  72  79 S7        29.95R
PINEY ISLAND   PTCLDY   N/A N/A N/A S7        29.95R
WILMINGTON     MOCLDY    81  69  67 S7        29.95R


$$

NCZ011>013-027>030-043-044-078>080-089-090>093-098-300100-
COASTAL PLAIN

CITY           SKY/WX    TMP DP  RH WIND       PRES   REMARKS
AHOSKIE        CLEAR     76  69  80 CALM      29.94S
CLINTON        MOCLDY    82  71  69 CALM      29.94S
ELIZABETHTOWN  PTCLDY    83  65  54 CALM      29.94R
GOLDSBORO      PTCLDY    83  69  63 SE3       29.92R
GREENVILLE     MOCLDY    82  68  61 S8        29.96R
HAVELOCK       PTCLDY    80  71  74 S7        29.96R
KENANSVILLE    PTCLDY    78  66  66 CALM      29.95S
KINSTON        PTCLDY    82  64  54 S7        29.95R
NEW BERN       PTCLDY    80  69  69 S5        29.96R
RICHLANDS      PTCLDY    81  68  65 S7        29.95R
ROCKY MOUNT    PTCLDY    83  67  58 S7        29.93R
WASHINGTON     CLEAR     81  64  55 SE5       29.95R
WHITEVILLE     CLEAR     77  65  66 CALM      29.94S

$$

AMZ130-135-150-152-154-156-158-170-250-252-270-ANZ085-086-088-633-658-670-300100-
MARINE OBSERVATIONS

STATION/POSITION TIME  TEMP    WIND        PRES    WAVE   SWELL
                       AIR SEA DIR/SP/G            HT/PER HT/PER
                 (UTC) (F)     (DEG/KT/KT) (MB)    (FT/S) (FT/S)
CHESAPEAKE LIGHT 0000   76     140/ 13/ 14 1015.1
64 E VA BEACH    2350   77 77  100/  8/ 10 1014.5    3/ 8   3/ 8
DUCK             2300   78 68  120/ 11/ 12 1013.5
2 E DUCK         2311      74                N/A     2/ 8
OREGON INLET     2300   76 80   70/  5/  8 1014.5
13E OREGON INLT  0000      76                N/A     3/ 8
HATTERAS CG      2300   80 81  160/  2/  4 1014.1
DIAMOND BUOY     2350   79 81  270/  6/  8 1014.3    4/ 6   3/ 6
CAPE LOOKOUT     0000   80     220/ 11/ 13 1014.2
BEAUFORT LAB     2300   81 81  210/  6/ 10 1013.5
30 SE NEW RVR IN 2308   81 81  220/ 14/ 17 1014.5
27 SE WRIGHTSVLE 2300      81  220/ 12/ 16   N/A
5 SE WRIGHTSVLE  2308   81 80  210/ 12/ 16 1014.1
225 S CAPE HAT   2350   81 80  220/ 17/ 19 1017.4    6/ 7
41 SE CHARLESTON 2350   82 83  210/ 14/ 16 1014.5    4/ 7   3/ 7

$$



USA.gov is the U.S. government's official web portal to all federal, state and local government web resources and services.